Weather History for KADS - October, 2012

Change the Weather History Date:

Friday, October 26, 2012

  Actual Average Record
Temperature  
Mean Temperature 48 °F -  
Max Temperature 53 °F 72 °F 88 °F (2014)
Min Temperature 44 °F 56 °F 32 °F (1996)
Degree Days  
Heating Degree Days 16    
Moisture  
Dew Point 35 °F    
Average Humidity 56    
Maximum Humidity 66    
Minimum Humidity 41    
Precipitation  
Precipitation 0.00 in - - ()
Sea Level Pressure  
Sea Level Pressure 30.21 in    
Wind  
Wind Speed 14 mph (North)    
Max Wind Speed 22 mph    
Max Gust Speed 30 mph    
Visibility 11 miles    
Events      
Averages and records for this station are not official NWS values.
T = Trace of Precipitation, MM = Missing Value Source: NWS Daily Summary

Daily Weather History Graph

Daily Weather History Graph

Search for Another Location

Airport or City:

Trip Planner

Search our weather history database for the weather conditions in past years. The results will help you decide how hot, cold, wet, or windy it might be!

Date:

Astronomy

Oct. 26, 2012 Rise Set
Actual Time 7:40 AM CDT 6:41 PM CDT
Civil Twilight 7:15 AM CDT 7:06 PM CDT
Nautical Twilight 6:46 AM CDT 7:35 PM CDT
Astronomical Twilight 6:17 AM CDT 8:04 PM CDT
Moon 4:51 PM CDT (10/26) 4:46 AM CDT (10/26)
Length of Visible Light 11h 51m
Length of Day
11h 00m
Waxing Gibbous, 91% of the Moon is Illuminated
Oct 26
Waxing Gibbous
Oct 29
Full
Nov 6
Last Quarter
Nov 13
New
Nov 20
First Quarter

Hourly Weather History & Observations

Time (CDT) Temp. Windchill Dew Point Humidity Pressure Visibility Wind Dir Wind Speed Gust Speed Precip Events Conditions
12:35 AM 53.6 °F - 37.4 °F 54% 30.10 in 10.0 mi North 13.8 mph 20.7 mph N/A   Overcast
12:55 AM 53.6 °F - 37.4 °F 54% 30.11 in 10.0 mi NNE 15.0 mph 23.0 mph N/A   Overcast
1:15 AM 53.6 °F - 37.4 °F 54% 30.11 in 10.0 mi North 15.0 mph 20.7 mph N/A   Overcast
1:35 AM 51.8 °F - 37.4 °F 58% 30.11 in 10.0 mi NNE 13.8 mph 21.9 mph N/A   Overcast
1:55 AM 51.8 °F - 37.4 °F 58% 30.12 in 10.0 mi North 17.3 mph 21.9 mph N/A   Overcast
2:15 AM 51.8 °F - 37.4 °F 58% 30.12 in 10.0 mi North 15.0 mph 20.7 mph N/A   Overcast
2:35 AM 51.8 °F - 37.4 °F 58% 30.12 in 10.0 mi North 15.0 mph 21.9 mph N/A   Overcast
2:55 AM 51.8 °F - 37.4 °F 58% 30.12 in 10.0 mi North 15.0 mph 21.9 mph N/A   Overcast
3:15 AM 51.8 °F - 37.4 °F 58% 30.13 in 10.0 mi North 15.0 mph 20.7 mph N/A   Overcast
3:35 AM 51.8 °F - 37.4 °F 58% 30.13 in 10.0 mi North 9.2 mph 18.4 mph N/A   Overcast
3:55 AM 51.8 °F - 37.4 °F 58% 30.12 in 10.0 mi North 12.7 mph - N/A   Overcast
4:15 AM 51.8 °F - 35.6 °F 54% 30.12 in 10.0 mi North 12.7 mph - N/A   Overcast
4:35 AM 51.8 °F - 35.6 °F 54% 30.13 in 10.0 mi North 11.5 mph 17.3 mph N/A   Overcast
4:55 AM 50.0 °F - 35.6 °F 58% 30.13 in 10.0 mi North 12.7 mph 20.7 mph N/A   Overcast
5:15 AM 50.0 °F - 35.6 °F 58% 30.13 in 10.0 mi North 9.2 mph - N/A   Overcast
5:35 AM 50.0 °F - 35.6 °F 58% 30.14 in 10.0 mi North 19.6 mph 24.2 mph N/A   Overcast
5:47 AM 50.0 °F - 35.6 °F 58% 30.15 in 13.0 mi North 18.4 mph 25.3 mph N/A   Overcast
5:55 AM 50.0 °F - 35.6 °F 58% 30.15 in 10.0 mi North 19.6 mph 25.3 mph N/A   Overcast
6:47 AM 48.2 °F - 37.4 °F 66% 30.17 in 13.0 mi North 13.8 mph 24.2 mph N/A   Overcast
7:53 AM 48.2 °F - 37.4 °F 66% 30.21 in 13.0 mi North 17.3 mph 23.0 mph N/A   Overcast
8:50 AM 48.2 °F - 35.6 °F 62% 30.23 in 13.0 mi North 15.0 mph 19.6 mph N/A   Mostly Cloudy
9:59 AM 48.2 °F - 37.4 °F 66% 30.25 in 13.0 mi North 18.4 mph 24.2 mph N/A   Overcast
10:50 AM 50.0 °F - 37.4 °F 62% 30.26 in 13.0 mi North 13.8 mph 24.2 mph N/A   Overcast
11:49 AM 50.0 °F - 37.4 °F 62% 30.28 in 13.0 mi NNW 19.6 mph 26.5 mph N/A   Overcast
1:47 PM 51.8 °F - 35.6 °F 54% 30.27 in 10.0 mi North 16.1 mph 23.0 mph N/A   Overcast
2:47 PM 51.8 °F - 35.6 °F 54% 30.26 in 10.0 mi North 21.9 mph 29.9 mph N/A   Scattered Clouds
3:59 PM 53.6 °F - 35.6 °F 51% 30.25 in 10.0 mi North 15.0 mph 28.8 mph N/A   Clear
4:51 PM 53.6 °F - 32.0 °F 44% 30.24 in 10.0 mi North 18.4 mph 27.6 mph N/A   Clear
5:47 PM 53.6 °F - 30.2 °F 41% 30.24 in 10.0 mi NNW 20.7 mph 28.8 mph N/A   Clear
6:49 PM 51.8 °F - 30.2 °F 44% 30.26 in 13.0 mi North 17.3 mph 23.0 mph N/A   Clear
7:47 PM 51.8 °F - 30.2 °F 44% 30.29 in 13.0 mi North 11.5 mph 17.3 mph N/A   Clear
8:53 PM 48.2 °F - 30.2 °F 50% 30.30 in 10.0 mi North 9.2 mph - N/A   Clear
9:50 PM 48.2 °F - 30.2 °F 50% 30.32 in 10.0 mi North 9.2 mph - N/A   Clear
10:15 PM 46.4 °F 41.9 °F 30.2 °F 53% 30.32 in 10.0 mi North 9.2 mph - N/A   Clear
10:35 PM 46.4 °F 43.5 °F 30.2 °F 53% 30.33 in 10.0 mi North 5.8 mph - N/A   Clear
10:55 PM 46.4 °F 42.4 °F 30.2 °F 53% 30.32 in 10.0 mi North 8.1 mph - N/A   Clear
11:15 PM 46.4 °F 43.5 °F 30.2 °F 53% 30.33 in 10.0 mi NNE 5.8 mph - N/A   Clear
11:35 PM 44.6 °F 41.4 °F 30.2 °F 57% 30.32 in 10.0 mi NNE 5.8 mph - N/A   Clear
11:55 PM 44.6 °F 40.7 °F 30.2 °F 57% 30.32 in 10.0 mi NNE 6.9 mph - N/A   Clear